Regional Weather Roundup
Issued by NWS Goodland, KS

Home | Current Version | Previous Version | Text Only | Print | Product List | Glossary On
Versions: 1 2 3 4 5 6 7 8 9 10 11 12 13 14 15 16 17 18 19 20 21 22 23 24 25 26 27 28 29 30 31 32 33 34 35 36 37 38 39 40 41 42 43 44 45 46 47 48 49 50
000
ASUS43 KGLD 231208
RWRGLD

GOODLAND FORECAST AREA HOURLY WEATHER ROUNDUP
NATIONAL WEATHER SERVICE GOODLAND KS
500 AM MST THU NOV 23 2017

...OFFICIAL OBSERVATIONS...

CITY           SKY/WX    TMP DP  RH WIND       PRES   REMARKS
GOODLAND KS    CLOUDY    42  37  82 W9        30.16S
HILL CITY KS   CLEAR     40  36  86 W3        30.10R
IMPERIAL NEB   CLOUDY    39  36  89 W7        30.12F
MCCOOK NEB     CLEAR     40  37  89 W10       30.10S
AKRON CO       CLOUDY    43  34  70 W10       30.19F
BURLINGTON CO  CLOUDY    38  34  85 W12       30.20R
LIMON CO       CLOUDY    38  33  82 N5        30.25S
$$

...UNOFFICIAL OBSERVATIONS...

CITY           SKY/WX    TMP DP  RH WIND       PRES   REMARKS
COLBY KS       CLOUDY    43  41  93 W9        30.14S
LENORA KS        N/A     44  32  63 NW8         N/A
NORTON KS      CLEAR     36  30  80 SW5       30.08
SHARON SPRINGS   N/A     45  38  78 W7          N/A
KIT CARSON CO    N/A     45  36  71 CALM        N/A
YUMA CO        FAIR      37  34  87 W8        30.17F
$$




USA.gov is the U.S. government's official web portal to all federal, state and local government web resources and services.